Find Starlink 32766

NORAD ID: 62574 Int'l Des: 2025-006 Owner: SPXS Country: US Constellation: starlink operational
LEOCIRCULAR

Live Position

Loading 3D Globe...

About Starlink 32766

Description loading...

Upcoming Passes

Passes for default location (London). Set your location on the main map for personalized predictions.

Altitude History

Loading altitude history...

Two-Line Element Set

1 62574U 25006W 26123.94647435 .00017934 00000-0 65932-3 0 9995
2 62574 43.0005 340.4933 0001427 271.2993 88.7695 15.27596222 73319
Epoch: May 3, 2026 • Age: 15 hours

Current Status

Altitude 482.6 km
Velocity 7.63 km/s
Sub-Earth Point 17.86°N, 71.86°E
Launch Date Jan 10, 2025
Age 1.3 years
Type internet

Technical Details

Classification Payload
Mass 730.00 kg
Dry Mass 700.00 kg
Total Mass 730.00 kg
Length 0.30 m
Diameter 4.10 m
Span 29.00 m
Shape Box + pan
Manufacturer SPXS
Bus Type Starlink V2M
Phase Status In Orbit
Owner/State SPXS/US

Most Searched